[[{"header":{"parameterUnit":"m.s-1","parameterCategory":1,"la1":30.2991,"la2":30.254,"lo1":-89.0895,"lo2":-89.0444,"dy":0.0017,"dx":0.0017,"nx":28,"ny":28,"refTime":"2024-04-05T03:00:00:Z","depth":0,"parameterNumber":2,"parameterNumberName":"U-component_of_WINDS"},"data":[0,0,0,0,0,0,0,0,0,0,0,0,0,0,0,0,0,0,0,0,0,0,0,0,0,0,0,0,0,0,0,0,0,0,0,0,0,0,0,0,0,0,0,0,0,0,0,0,0,0,0,0,0,0,0,0,0,0,-1.6698,-1.6698,0,-1.6686,-1.6686,-1.6686,-1.6606,-1.6604,-1.6602,-1.6601,-1.6593,-1.6594,-1.6596,0,0,0,0,0,0,0,0,0,0,0,0,0,-1.6653,-1.6654,-1.6698,-1.6698,-1.6697,-1.6686,-1.6686,-1.6686,-1.6607,-1.6604,-1.6602,-1.66,-1.6592,-1.6594,-1.6596,0,0,0,0,0,0,0,0,0,0,0,0,0,-1.666,-1.6655,-1.6698,-1.6656,-1.6652,-1.6686,-1.6686,-1.6686,-1.6607,-1.6604,-1.6601,-1.6599,-1.6592,-1.6594,-1.6596,-1.667,0,0,-1.6604,-1.6605,0,0,0,0,0,0,0,0,-1.666,-1.6662,-1.6663,-1.6659,-1.6655,-1.6645,-1.6668,-1.6681,-1.6608,-1.6625,-1.6601,-1.6597,-1.6613,-1.6613,-1.6618,-1.667,-1.667,-1.6604,-1.6606,-1.6607,-1.6607,0,0,0,0,0,0,0,-1.666,-1.6662,-1.6693,-1.6663,-1.6658,-1.6639,-1.6637,-1.667,-1.6635,-1.6623,-1.6617,-1.6617,-1.661,-1.6616,-1.6617,-1.667,-1.6604,-1.6606,-1.6608,-1.6609,-1.6782,-1.6785,0,0,0,0,0,0,-1.6664,-1.6662,-1.6694,-1.6693,-1.665,-1.6642,-1.664,-1.6651,-1.6635,-1.6629,-1.6619,-1.6613,-1.6613,-1.6614,-1.6616,-1.6702,-1.6607,-1.6609,-1.661,-1.6779,-1.6782,-1.6786,0,0,0,0,0,0,-1.6664,-1.6668,-1.6694,-1.6676,-1.6678,-1.6646,-1.6659,-1.6652,-1.6658,-1.6632,-1.6626,-1.6631,-1.6611,-1.6613,-1.6657,-1.6701,-1.661,-1.6612,-1.6775,-1.678,-1.6784,-1.6874,0,0,0,0,0,0,-1.6663,-1.6668,-1.6696,-1.6677,-1.6679,-1.6735,-1.6662,-1.6654,-1.6662,-1.6654,-1.6641,-1.6637,-1.6608,-1.6654,-1.666,-1.6702,-1.6614,-1.6771,-1.6777,-1.6783,-1.6867,-1.6882,-1.6894,0,0,0,0,0,-1.6661,-1.6722,-1.6697,-1.6702,-1.6712,-1.6737,-1.6739,-1.6704,-1.6666,-1.6693,-1.6676,-1.6637,-1.6695,-1.6659,-1.6665,-1.6709,-1.6768,-1.6775,-1.6782,-1.6862,-1.6879,-1.6893,0,0,0,0,0,0,-1.6748,-1.6719,-1.6691,-1.6748,-1.6745,-1.6724,-1.6758,-1.6724,-1.6733,-1.6726,-1.6683,-1.6681,-1.6732,-1.6724,-1.6686,-1.678,-1.6725,-1.6733,-1.6783,-1.6799,-1.6812,-1.6814,-1.6616,0,0,0,0,0,-1.6774,-1.6795,-1.6769,-1.6822,-1.6822,-1.679,-1.68,-1.6773,-1.677,-1.6769,-1.6755,-1.6754,-1.6772,-1.6785,-1.68,-1.6865,-1.6862,-1.6898,-1.6912,-1.6922,-1.6931,-1.6965,-1.6981,-1.6809,-1.6809,-1.6809,0,0,-1.6827,-1.6814,-1.6831,-1.6839,-1.6834,-1.6858,-1.679,-1.6819,-1.6837,-1.6773,-1.6814,-1.6804,-1.68,-1.6856,-1.6879,-1.6851,-1.6977,-1.6931,-1.694,-1.6943,-1.6974,-1.6991,-1.7005,-1.6814,-1.6813,-1.6812,0,0,-1.6937,-1.6929,-1.6972,-1.6968,-1.6961,-1.6939,-1.6949,-1.6932,-1.6923,-1.6963,-1.6916,-1.6937,-1.6968,-1.6967,-1.6971,-1.7079,-1.7044,-1.7085,-1.7155,-1.7189,-1.7202,-1.7214,-1.7254,-1.7268,-1.7093,-1.7093,-1.7094,0,-1.7005,-1.7039,-1.6998,-1.703,-1.7035,-1.6977,-1.702,-1.7019,-1.7018,-1.7023,-1.6991,-1.7029,-1.7022,-1.7076,-1.7102,-1.7107,-1.7118,-1.7087,-1.7203,-1.7215,-1.7225,-1.7263,-1.7277,-1.7099,-1.7098,-1.7097,-1.7097,0,-1.7123,-1.7147,-1.7183,-1.7182,-1.719,-1.7228,-1.7194,-1.7208,-1.718,-1.7162,-1.7203,-1.7193,-1.7204,-1.7215,-1.7189,-1.7266,-1.7248,-1.721,-1.7155,-1.7248,-1.7282,-1.7296,-1.7106,-1.7104,-1.7103,-1.7101,0,0,-1.729,-1.7264,-1.7278,-1.7277,-1.7264,-1.7282,-1.7317,-1.7327,-1.734,-1.7341,-1.737,-1.7397,-1.7361,-1.7365,-1.7338,-1.7368,-1.7455,-1.7326,-1.7325,-1.7351,-1.754,-1.757,-1.7587,-1.743,-1.7433,-1.7435,-1.7541,0,-1.7397,-1.7454,-1.7417,-1.7481,-1.7503,-1.7447,-1.7477,-1.7473,-1.7456,-1.7473,-1.7455,-1.7476,-1.7427,-1.7429,-1.7455,-1.7439,-1.7492,-1.743,-1.7458,-1.7459,-1.7462,-1.7605,-1.7636,-1.7737,-1.7554,-1.7556,-1.7557,0,-1.7529,-1.7534,-1.7599,-1.7581,-1.7589,-1.7617,-1.7623,-1.7639,-1.7633,-1.7619,-1.7623,-1.7588,-1.7622,-1.7565,-1.7611,-1.757,-1.7578,-1.7572,-1.7575,-1.7578,-1.7516,-1.7613,-1.7768,-1.7784,-1.7578,-1.7576,-1.7575,0,-1.7646,-1.7669,-1.771,-1.7711,-1.769,-1.7711,-1.7704,-1.7695,-1.7703,-1.7708,-1.7713,-1.7723,-1.7729,-1.7737,-1.7706,-1.7668,-1.7757,-1.7697,-1.7747,-1.7748,-1.777,-1.777,-1.7931,-1.7774,-1.7773,-1.7773,-1.7773,0,-1.777,-1.7812,-1.7762,-1.7789,-1.7834,-1.7792,-1.7839,-1.7825,-1.7817,-1.784,-1.7792,-1.7815,-1.7772,-1.779,-1.7766,-1.7809,-1.7811,-1.7802,-1.7795,-1.7807,-1.7809,-1.7814,-1.7807,-1.7777,-1.7776,-1.7775,-1.7775,0,-1.7909,-1.7877,-1.7919,-1.7895,-1.789,-1.7925,-1.7905,-1.7929,-1.7908,-1.7938,-1.7943,-1.7911,-1.793,-1.7899,-1.7915,-1.7899,-1.7958,-1.794,-1.796,-1.7955,-1.8008,-1.8004,-1.8179,-1.8201,-1.8028,-1.803,-1.8031,0,-1.7991,-1.8022,-1.8001,-1.8012,-1.8007,-1.8026,-1.8033,-1.7993,-1.8003,-1.7997,-1.8022,-1.8036,-1.8046,-1.808,-1.8059,-1.8071,-1.8054,-1.8115,-1.8056,-1.8067,-1.8057,-1.8056,-1.8059,-1.8128,-1.813,-1.8131,-1.8133,0,-1.8141,-1.8123,-1.8135,-1.8141,-1.8151,-1.8154,-1.8154,-1.8167,-1.8123,-1.8137,-1.8155,-1.8163,-1.8178,-1.8194,-1.82,-1.8194,-1.8157,-1.8151,-1.8163,-1.8177,-1.8188,-1.8184,-1.7995,-1.8148,-1.8146,-1.8145,-1.8144,-1.8144,-1.8255,-1.828,-1.8268,-1.8283,-1.8278,-1.8279,-1.83,-1.8281,-1.8295,-1.8303,-1.8278,-1.8303,-1.8295,-1.83,-1.8297,-1.8316,-1.8289,-1.8307,-1.8312,-1.8318,-1.8326,-1.8183,-1.8317,-1.8316,-1.8316,-1.8316,-1.8315,0,-1.8403,-1.8392,-1.8406,-1.8406,-1.8418,-1.8379,-1.8377,-1.839,-1.8412,-1.8407,-1.8417,-1.8438,-1.8453,-1.8432,-1.8444,-1.8463,-1.8447,-1.8468,-1.8467,-1.8466,-1.8349,-1.8337,-1.8481,-1.8481,-1.8481,-1.8481,-1.8481,-1.8481,-1.8481,-1.8521,-1.8502,-1.8539,-1.8528,-1.8551,-1.8553,-1.8553,-1.8549,-1.8574,-1.8586,-1.8571,-1.8561,-1.8571,-1.8583,-1.8576,-1.8583,-1.8611,-1.8599,-1.849,-1.8474,-1.8459,-1.8448,-1.8612,-1.8613,-1.8715,-1.8716,-1.8716]},{"header":{"parameterUnit":"m.s-1","parameterCategory":1,"la1":30.2991,"la2":30.254,"lo1":-89.0895,"lo2":-89.0444,"dy":0.0017,"dx":0.0017,"nx":28,"ny":28,"refTime":"2024-04-05T03:00:00:Z","depth":0,"parameterNumber":3,"parameterNumberName":"V-component_of_WINDS"},"data":[0,0,0,0,0,0,0,0,0,0,0,0,0,0,0,0,0,0,0,0,0,0,0,0,0,0,0,0,0,0,0,0,0,0,0,0,0,0,0,0,0,0,0,0,0,0,0,0,0,0,0,0,0,0,0,0,0,0,-3.3835,-3.3835,0,-3.3913,-3.3914,-3.3915,-3.3879,-3.3877,-3.3875,-3.3874,-3.395,-3.3954,-3.3957,0,0,0,0,0,0,0,0,0,0,0,0,0,-3.365,-3.3654,-3.3834,-3.3835,-3.3836,-3.3913,-3.3914,-3.3915,-3.388,-3.3877,-3.3875,-3.3873,-3.3949,-3.3953,-3.3958,0,0,0,0,0,0,0,0,0,0,0,0,0,-3.373,-3.3655,-3.3834,-3.3828,-3.3828,-3.3913,-3.3914,-3.3915,-3.388,-3.3877,-3.3874,-3.3872,-3.3947,-3.3953,-3.3958,-3.4052,0,0,-3.3976,-3.3978,0,0,0,0,0,0,0,0,-3.3725,-3.3736,-3.3828,-3.3829,-3.3829,-3.3883,-3.3877,-3.3961,-3.3881,-3.386,-3.3873,-3.387,-3.393,-3.3937,-3.3958,-3.4056,-3.4059,-3.3976,-3.398,-3.3982,-3.3984,0,0,0,0,0,0,0,-3.372,-3.3733,-3.3865,-3.3829,-3.383,-3.382,-3.3828,-3.3893,-3.391,-3.3862,-3.3859,-3.3869,-3.393,-3.3952,-3.3959,-3.406,-3.3976,-3.3981,-3.3985,-3.3987,-3.4238,-3.4241,0,0,0,0,0,0,-3.3715,-3.3728,-3.3863,-3.3868,-3.3769,-3.3826,-3.3835,-3.3869,-3.391,-3.3913,-3.3872,-3.3868,-3.3944,-3.3953,-3.3962,-3.4074,-3.3982,-3.3988,-3.3991,-3.4235,-3.4239,-3.4242,0,0,0,0,0,0,-3.3711,-3.3727,-3.386,-3.3798,-3.3814,-3.3832,-3.3871,-3.3872,-3.3895,-3.3917,-3.392,-3.3892,-3.3942,-3.3954,-3.403,-3.4076,-3.399,-3.3996,-3.4231,-3.4236,-3.4241,-3.4299,0,0,0,0,0,0,-3.3706,-3.3726,-3.3763,-3.3799,-3.3817,-3.3928,-3.3873,-3.3876,-3.3905,-3.39,-3.3937,-3.394,-3.3941,-3.4022,-3.4036,-3.4082,-3.4,-3.4227,-3.4233,-3.4239,-3.4293,-3.4305,-3.4316,0,0,0,0,0,-3.3699,-3.3775,-3.3765,-3.3781,-3.3864,-3.3931,-3.3941,-3.3941,-3.3909,-3.3945,-3.396,-3.3939,-3.4069,-3.403,-3.4045,-3.4094,-3.4224,-3.4232,-3.4239,-3.4288,-3.4303,-3.4316,0,0,0,0,0,0,-3.3743,-3.378,-3.3769,-3.3859,-3.3892,-3.3925,-3.397,-3.3957,-3.3999,-3.3993,-3.399,-3.3998,-3.4077,-3.4093,-3.4049,-3.4187,-3.4141,-3.4152,-3.4174,-3.4188,-3.4199,-3.4193,-3.4005,0,0,0,0,0,-3.3763,-3.3816,-3.3845,-3.3921,-3.3939,-3.3952,-3.3981,-3.3979,-3.4012,-3.4026,-3.4046,-3.4078,-3.4126,-3.4158,-3.4204,-3.4295,-3.4302,-3.4337,-3.4348,-3.4357,-3.4366,-3.4416,-3.4431,-3.4266,-3.4266,-3.4266,0,0,-3.3805,-3.3832,-3.3865,-3.3931,-3.3956,-3.401,-3.3964,-3.4022,-3.4062,-3.4034,-3.4108,-3.4124,-3.416,-3.4244,-3.4282,-3.426,-3.4414,-3.4367,-3.4374,-3.4378,-3.4425,-3.444,-3.4454,-3.4271,-3.427,-3.4269,0,0,-3.3908,-3.3934,-3.4001,-3.4028,-3.4068,-3.4076,-3.4092,-3.4127,-3.4137,-3.4211,-3.4192,-3.4238,-3.4321,-3.4347,-3.4372,-3.4486,-3.4468,-3.4501,-3.456,-3.4608,-3.4621,-3.4632,-3.4672,-3.4687,-3.451,-3.451,-3.451,0,-3.3955,-3.4036,-3.4036,-3.4097,-3.4126,-3.4105,-3.4172,-3.4198,-3.425,-3.427,-3.4244,-3.4349,-3.4371,-3.4461,-3.4489,-3.451,-3.4527,-3.4496,-3.4619,-3.4631,-3.4641,-3.4679,-3.4695,-3.4514,-3.4513,-3.4513,-3.4513,0,-3.4091,-3.4148,-3.4196,-3.4249,-3.4284,-3.4347,-3.4356,-3.439,-3.4385,-3.4396,-3.4471,-3.4498,-3.4548,-3.457,-3.4564,-3.4659,-3.4644,-3.4619,-3.4573,-3.4661,-3.4697,-3.4711,-3.4519,-3.4518,-3.4517,-3.4516,0,0,-3.4223,-3.4276,-3.4294,-3.4318,-3.436,-3.4403,-3.4465,-3.4516,-3.4546,-3.4582,-3.4633,-3.4704,-3.4682,-3.4709,-3.4707,-3.4749,-3.4837,-3.4719,-3.472,-3.4739,-3.4943,-3.4961,-3.4978,-3.4826,-3.4829,-3.4831,-3.494,0,-3.433,-3.444,-3.4442,-3.4543,-3.4594,-3.4576,-3.4629,-3.4661,-3.4672,-3.4717,-3.4729,-3.478,-3.4746,-3.4763,-3.4804,-3.4818,-3.4878,-3.481,-3.4872,-3.4874,-3.4863,-3.4997,-3.5016,-3.5117,-3.4954,-3.4956,-3.4958,0,-3.4468,-3.4511,-3.4617,-3.4653,-3.4674,-3.4723,-3.477,-3.4813,-3.4848,-3.4853,-3.4885,-3.4876,-3.4938,-3.489,-3.4975,-3.4929,-3.4954,-3.4965,-3.4969,-3.4974,-3.4921,-3.5005,-3.515,-3.5165,-3.498,-3.4978,-3.4977,0,-3.4554,-3.4638,-3.4712,-3.4733,-3.4776,-3.481,-3.483,-3.4862,-3.4892,-3.4933,-3.4952,-3.4999,-3.5024,-3.506,-3.5064,-3.5029,-3.5149,-3.5102,-3.5154,-3.5154,-3.5179,-3.5178,-3.5329,-3.5197,-3.5197,-3.5196,-3.5196,0,-3.4672,-3.4737,-3.4751,-3.4797,-3.4869,-3.4871,-3.4942,-3.4958,-3.4987,-3.5034,-3.5021,-3.5065,-3.5068,-3.5113,-3.5116,-3.5185,-3.5197,-3.5202,-3.5202,-3.5203,-3.5202,-3.5219,-3.5212,-3.52,-3.52,-3.5199,-3.5198,0,-3.4779,-3.4791,-3.4871,-3.4906,-3.4916,-3.4968,-3.4997,-3.504,-3.5051,-3.5111,-3.5125,-3.5141,-3.5194,-3.5201,-3.5263,-3.5265,-3.5348,-3.534,-3.5336,-3.5335,-3.5387,-3.5382,-3.5554,-3.5577,-3.543,-3.5432,-3.5433,0,-3.4854,-3.4904,-3.4945,-3.4976,-3.4998,-3.5049,-3.508,-3.5083,-3.5116,-3.516,-3.5198,-3.5249,-3.5291,-3.5376,-3.5392,-3.5439,-3.5432,-3.5489,-3.5439,-3.5438,-3.5432,-3.5429,-3.5433,-3.5499,-3.55,-3.5502,-3.5503,0,-3.4984,-3.4988,-3.5034,-3.5084,-3.5122,-3.516,-3.5196,-3.5222,-3.523,-3.5268,-3.5322,-3.5355,-3.5418,-3.5469,-3.5515,-3.5533,-3.5519,-3.5519,-3.5533,-3.5534,-3.553,-3.5532,-3.5362,-3.5514,-3.5513,-3.5512,-3.5512,-3.5511,-3.5077,-3.512,-3.5156,-3.5209,-3.5236,-3.5271,-3.5313,-3.5329,-3.5375,-3.5428,-3.5427,-3.5487,-3.552,-3.5581,-3.5602,-3.5648,-3.5629,-3.565,-3.5656,-3.5661,-3.5665,-3.5523,-3.5657,-3.5656,-3.5656,-3.5656,-3.5656,0,-3.5206,-3.5228,-3.5277,-3.5328,-3.5369,-3.5354,-3.5393,-3.5428,-3.5482,-3.5514,-3.5556,-3.5618,-3.5668,-3.5689,-3.5737,-3.577,-3.5764,-3.5782,-3.5779,-3.5784,-3.568,-3.5662,-3.5786,-3.5786,-3.5786,-3.5786,-3.5786,-3.5786,-3.5278,-3.5351,-3.5359,-3.5446,-3.5467,-3.5527,-3.555,-3.5581,-3.5608,-3.5679,-3.572,-3.5734,-3.5762,-3.5812,-3.5856,-3.5861,-3.5879,-3.59,-3.5902,-3.5804,-3.5791,-3.5778,-3.5762,-3.5904,-3.5904,-3.6001,-3.6002,-3.6003]}]]